Location: Unspecified
(0.0000°N, 0.0000°E)
Time: 23:09:33
(UTC+00:00)

GONETS M 08 (M18) - Pass Details

Date: 18 May 2026
Orbit: 1470 x 1518 km, 82.5° (Epoch: 7 June)

Event Time Altitude Azimuth Distance (km) Brightness Sun altitude
Rises 18:45:09 0° 335° (NNW) 4,593 ? -11.4°
Reaches altitude 10° 18:48:24 10° 326° (NW) 3,609 ? -12.2°
Maximum altitude 18:55:47 32° 267° (W) 2,317 ? -13.9°
Drops below altitude 10° 19:03:10 10° 207° (SSW) 3,603 ? -15.7°
Sets 19:06:28 0° 198° (SSW) 4,584 ? -16.4°
